Flag for U.S.A. Weather past 2 weeks in Denver, Colorado, U.S.A.

Now
41 °F

Scattered clouds.


Feels Like: 36 °F
Forecast: 37 / 54 °F
Wind: 8 mph from Northeast

Location: Buckley Air Force Base


UV Index: 0 (Low)

Visibility: 70 mi


Pressure: 29.77 "Hg

Humidity: 61%

Dew point: 28 °F

Location of DenverLocation

Historic Weather in Denver

°F

Denver temperature yesterday

Maximum temperature yesterday: 63 °F (at 1:55 PM)
Minimum temperature yesterday: 32 °F (at 12:55 AM)
Average temperature yesterday: 47 °F

Past Weeks' High & Low Weather Summary

 TemperatureHumidityPressure
High75 °F (Apr 11, 4:55 PM)100% (Apr 2, 10:55 PM)30.42 "Hg (Apr 2, 10:55 PM)
Low14 °F (Apr 14, 5:55 AM)11% (Apr 11, 4:55 PM)29.51 "Hg (Apr 12, 5:55 PM)
Average44 °F54%29.89 "Hg
* Reported Apr 1 7:55 AM — Apr 16 7:55 AM, Denver, Weather by CustomWeather, © 2014

Note: Actual official high and low records may vary slightly from our data, if they occured in-between our weather recording intervals... More about our weather records

Advertising

Historic Weather Conditions — Data for Previous 24 hours

 ConditionsComfort  
Time TempWeatherWind HumidityBarometerVisibility
7:55 AM
Apr 16
41 °FScattered clouds.8 mph61%29.77 "Hg70 mi
6:55 AM39 °FPassing clouds.6 mph48%29.73 "Hg70 mi
5:55 AM37 °FPassing clouds.5 mph70%29.70 "Hg25 mi
4:55 AM36 °FPassing clouds.3 mph81%29.65 "Hg25 mi
3:55 AM39 °FPassing clouds.3 mph65%29.62 "Hg25 mi
2:55 AM43 °FPassing clouds.5 mph36%29.59 "Hg25 mi
1:55 AM46 °FPassing clouds.9 mph32%29.54 "Hg25 mi
12:55 AM43 °FPartly cloudy.8 mph39%29.57 "Hg25 mi
11:55 PM
Apr 15
45 °FPartly cloudy.13 mph34%29.57 "Hg25 mi
10:55 PM45 °FPartly cloudy.10 mph34%29.60 "Hg25 mi
9:55 PM52 °FPartly cloudy.9 mph22%29.61 "Hg25 mi
8:55 PM52 °FPartly cloudy.14 mph22%29.62 "Hg25 mi
7:55 PM55 °FPartly sunny.8 mph19%29.62 "Hg25 mi
6:55 PM61 °FBroken clouds.13 mph16%29.62 "Hg70 mi
4:55 PM63 °FPartly sunny.9 mph15%29.64 "Hg70 mi
3:55 PM63 °FBroken clouds.9 mph17%29.68 "Hg70 mi
2:55 PM63 °FBroken clouds.12 mph20%29.72 "Hg70 mi
1:55 PM63 °FBroken clouds.3 mph17%29.75 "Hg70 mi
12:55 PM61 °FBroken clouds.5 mph20%29.80 "Hg70 mi
11:55 AM55 °FBroken clouds.9 mph26%29.85 "Hg70 mi
10:55 AM54 °FBroken clouds.14 mph26%29.89 "Hg70 mi
Weather by CustomWeather, © 2014

See weather overview